CYGFM02

Last updated on Thu Oct 30 2025 00:02:23 GMT+0000 (Coordinated Universal Time)

1 41886U 16078C 25302.45740787 .00025187 00000+0 44862-3 0 9992 2 41886 34.9447 310.7617 0010827 164.9491 195.1554 15.49071371493191
UTC large
Height (km)
Speed (km/s)
/
Latitude / Longitude
Inclination (degrees)
Orbital Period (minutes)
Azimuth
Elevation
Range (km)
Doppler Factor

Next 0 passes for location: London (51.5072 / 0.1276)

Sorry there are no passes over London.